Regional Weather Roundup
Issued by NWS

Home | Current Version | Previous Version | Text Only | Print | Product List | Glossary Off
Versions: 1 2 3 4 5 6 7 8 9 10 11 12 13 14 15 16 17 18 19 20 21 22 23 24 25 26 27 28 29 30 31 32 33 34 35 36 37 38 39 40 41 42 43 44 45 46 47 48 49 50

000
ASUS43 KOAX 220210
RWRNE

WEATHER ROUNDUP FOR NEBRASKA
NATIONAL WEATHER SERVICE OMAHA NE
900 PM CDT MON JUL 21 2014

NOTES: SATELLITE DATA IS BEING USED TO AUGMENT CLOUD COVER ABOVE
       12000 FEET.
       "FAIR" INDICATES FEW OR NO CLOUDS BELOW 12,000 FEET WITH NO
       SIGNIFICANT WEATHER AND/OR OBSTRUCTIONS TO VISIBILITY.

  * THESE STATIONS DO NOT REPORT WEATHER SUCH AS RAIN...SNOW OR FOG.

NEZ001>004-019>022-054>056-220300-
NEBRASKA PANHANDLE

CITY           SKY/WX    TMP DP  RH WIND       PRES   REMARKS
SCOTTSBLUFF    PTCLDY    81  56  42 SE9       29.99S
ALLIANCE       PTCLDY    82  50  32 SE12      29.99S
CHADRON        PTCLDY    92  45  19 SW5       29.89R
KIMBALL        MOCLDY    79  48  33 SW7       30.09R
SIDNEY         PTCLDY    83  47  28 E12       30.07R
$$

NEZ057>060-069>072-079>082-220300-
SOUTHWEST NEBRASKA

CITY           SKY/WX    TMP DP  RH WIND       PRES   REMARKS
NORTH PLATTE   PTCLDY    87  60  40 S12       29.93R
IMPERIAL       PTCLDY    84  57  39 SE9       29.98R
LEXINGTON      PTCLDY    88  70  55 S7        29.92R HX  92
MCCOOK         MOCLDY    86  56  35 S6        29.92S
OGALLALA       MOCLDY    84  50  30 NW13      30.01R
$$

NEZ005>010-023>029-035>040-094-220300-
NORTH CENTRAL NEBRASKA

CITY           SKY/WX    TMP DP  RH WIND       PRES   REMARKS
VALENTINE      CLEAR     91  63  39 S5        29.85R HX  92
AINSWORTH      PTCLDY    86  63  46 CALM      29.87R
BROKEN BOW     PTCLDY    88  67  49 SW5       29.89R HX  91
O`NEILL        MOCLDY    87  61  42 SW6       29.83R
THEDFORD       PTCLDY    91  58  33 SW8       29.92R HX  90
$$

NEZ041-046>049-061>064-073>077-083>087-220300-
SOUTH CENTRAL NEBRASKA

CITY           SKY/WX    TMP DP  RH WIND       PRES   REMARKS
GRAND ISLAND   PTCLDY    90  71  53 S12       29.87R HX  96
HASTINGS       PTCLDY    89  65  44 S7        29.90R HX  91
HEBRON         PTCLDY    90  66  44 S12       29.89R HX  92
HOLDREGE       MOCLDY    89  60  38 S6        29.93R
KEARNEY *      PTCLDY    90  68  48 SW10      29.91R HX  93
YORK           MOCLDY    88  73  62 S14       29.87R HX  96
$$

NEZ011>018-030>034-042>045-220300-
NORTHEAST NEBRASKA

CITY           SKY/WX    TMP DP  RH WIND       PRES   REMARKS
NORFOLK        PTCLDY    85  77  77 CALM      29.81S HX  95
ALBION         MOCLDY    83  74  73 SE3       29.84R HX  90
BLAIR          MOCLDY    88  76  69 S7        29.83S HX  99
COLUMBUS *     CLOUDY    90  75  62 SW5       29.84R HX 100
TEKAMAH        MOCLDY    87  78  74 SE8       29.80S HX 100
WAYNE          PTCLDY    84  81  89 S3        29.80F HX  99
$$

NEZ050>053-065>068-078-088>093-220300-
SOUTHEAST NEBRASKA

CITY           SKY/WX    TMP DP  RH WIND       PRES   REMARKS
LINCOLN        MOCLDY    91  75  59 S15       29.83S HX 101
OMAHA EPPLEY   MOCLDY    91  77  63 S15       29.82S HX 104
BEATRICE       MOCLDY    86  73  63 S10       29.88R HX  93
FALLS CITY     PTCLDY    86  74  67 S10       29.88S HX  94
NEBRASKA CITY  MOCLDY    83  76  78 S10       29.87R HX  91
PLATTSMOUTH    MOCLDY    87  76  68 S10       29.85S HX  97
$$

NEZ044-045-051>053-067-220300-
OMAHA AREA

CITY           SKY/WX    TMP DP  RH WIND       PRES   REMARKS
OMAHA EPPLEY   MOCLDY    91  77  63 S15       29.82S HX 104
BLAIR          MOCLDY    88  76  69 S7        29.83S HX  99
MILLARD        MOCLDY    89  78  69 SE6       29.82S HX 102
OFFUTT AFB     MOCLDY    87  82  87 SE7       29.83S HX 106
PLATTSMOUTH    MOCLDY    87  76  68 S10       29.85S HX  97
WAHOO          FAIR      86  75  69 SE5       29.82R HX  95
$$


USA.gov is the U.S. government's official web portal to all federal, state and local government web resources and services.